Location: Gro�sch�nbrunn
(49.5760°N, 11.8868°E)
Time: 12:30:20
(UTC+00:00)

Cosmos 2227 - Pass Details

Date: 18 September 2020
Orbit: 836 x 859 km, 71.0° (Epoch: 22 October)

Event Time Altitude Azimuth Distance (km) Brightness Sun altitude
Rises 17:57:51 0° 199° (SSW) 3,420 7.5 -7.2°
Reaches altitude 10° 18:00:18 10° 198° (SSW) 2,486 6.7 -7.6°
Maximum altitude 18:05:59 72° 115° (ESE) 901 4.2 -8.5°
Drops below altitude 10° 18:11:41 10° 32° (NNE) 2,490 6.5 -9.4°
Sets 18:14:08 0° 31° (NNE) 3,426 7.2 -9.8°
